Location: Casilda
(33.0440°S, 61.1680°W)
Time: 14:19:09
(UTC-03:00)

ISS - Pass Details

Date: 23 July 2021
Orbit: 419 x 421 km, 51.6° (Epoch: 04 August)

Event Time Altitude Azimuth Distance (km) Brightness Sun altitude
Exits shadow 06:19:46 31° 162° (SSE) 783 -2.4 -21.2°
Drops below altitude 10° 06:21:47 10° 144° (SE) 1,524 -0.6 -20.8°
Sets 06:23:57 0° 138° (SE) 2,395 0.5 -20.3°
